Regional Weather Roundup
Issued by NWS Charleston, SC

Current Version | Previous Version | Graphics & Text | Print | Product List | Glossary On
Versions: 1 2 3 4 5 6 7 8 9 10 11 12 13 14 15 16 17 18 19 20 21 22 23 24 25 26 27 28 29 30 31 32 33 34 35 36 37 38 39 40 41 42 43 44 45 46 47 48 49 50
000 ASUS42 KCHS 051428 RWRCHS REGIONAL WEATHER ROUNDUP NATIONAL WEATHER SERVICE CHARLESTON SC 1000 AM EDT THU MAY 05 2016 NOTE: "FAIR" INDICATES FEW OR NO CLOUDS BELOW 12,000 FEET WITH NO SIGNIFICANT WEATHER AND/OR OBSTRUCTIONS TO VISIBILITY. NOT ALL STATIONS ARE QUALITY CONTROLLED. USE DATA WITH CAUTION... ESPECIALLY DEWPOINT OBSERVATIONS. SCZ027-030-031-034>040-042>050-051500- ...SOUTHEAST SOUTH CAROLINA... CITY SKY/WX TMP DP RH WIND PRES REMARKS N CHARLESTON MOSUNNY 64 48 56 NW14 29.61S WATERFRONT PRK N/A 61 50 67 W8 29.60S MOUNT PLEASANT FAIR 64 50 59 W13 29.60S JOHNS ISLAND FAIR 66 50 55 NW16 29.62R PINOPOLIS N/A 63 52 67 W14 29.53S MONCKS CORNER FAIR 61 43 51 W5 29.61S SUMMERVILLE FAIR 63 48 59 W10G17 29.63S BEAUFORT MCAS SUNNY 64 47 53 W13G24 29.66R BEAUFORT ARPT FAIR 64 46 52 W16G24 29.65S HILTON HEAD IS SUNNY 64 50 59 W14G23 29.66S WALTERBORO SUNNY 64 45 48 NW15G24 29.65S ALLENDALE FAIR 63 46 55 VRB7G14 29.66S ...SOUTHERN MIDLANDS AND PEE DEE... CITY SKY/WX TMP DP RH WIND PRES REMARKS GEORGETOWN FAIR 64 48 55 W13 29.57S KINGSTREE FAIR 63 46 55 NW13 29.58S ORANGEBURG SUNNY 63 44 50 NW15G23 29.64R BARNWELL FAIR 64 46 52 W9G18 29.67S AIKEN FAIR 59 43 55 NW12G17 29.70S MANNING FAIR 61 46 59 NW8 29.60S COLUMBIA MOSUNNY 63 44 50 NW15 29.63S SUMTER PTSUNNY 62 47 60 NW17 29.59R FLORENCE PTSUNNY 64 49 57 NW16G24 29.56S MYRTLE BEACH NOT AVBL N MYRTLE BEACH SUNNY 68 52 56 W6 29.53S $$ GAZ063-065-086>088-099>101-113>116-118-119-134>141-150-051500- ...SOUTHEAST GEORGIA... CITY SKY/WX TMP DP RH WIND PRES REMARKS SAVANNAH ARPT SUNNY 65 44 46 NW18G28 29.68F HUNTER AAF SUNNY 65 47 52 W16G24 29.66S FORT STEWART SUNNY 65 43 45 W10G28 29.69S STATESBORO SUNNY 67 51 57 NW15G29 29.70S SYLVANIA SUNNY 64 49 58 N16 29.70S CLAXTON FAIR 65 48 55 W22G28 29.72S ...CSRA...CENTRAL AND FAR SOUTHEAST GEORGIA... CITY SKY/WX TMP DP RH WIND PRES REMARKS THOMSON SUNNY 63 48 58 W14 29.75S AUGUSTA-BUSH SUNNY 62 44 51 NW12 29.69R AUGUSTA-DANIEL MOSUNNY 62 42 47 NW13G22 29.70R SWAINSBORO FAIR 61 45 55 NW12G22 29.74R VIDALIA SUNNY 63 43 48 NW16G25 29.75R EASTMAN PTSUNNY 63 45 51 NW13G20 29.81R HAZLEHURST FAIR 65 46 49 NW12G22 29.76R ALMA SUNNY 65 45 48 W14 29.76S WAYCROSS SUNNY 67 45 45 NW14G21 29.77S JESUP FAIR 68 46 45 NW17G23 29.74S BAXLEY FAIR 66 46 48 W13G22 29.75S BRUNSWICK SUNNY 73 43 33 W14G23 29.73S SAINT SIMONS SUNNY 66 45 46 W15G24 29.72S $$ SCZ027-028-034-036>038-045-046-048>050-GAZ119-141-051500- ...LAKE AND SUPPLEMENTAL COASTAL OBSERVATIONS... STATION/POSITION TIME TEMP WIND PRES WAVE SWELL AIR SEA DIR/SP/G HT/PER HT/PER/DIR (UTC) (F) (DEG/KT/KT) (MB) (FT/S) (FT/S/D) WINYAH BAY 1245 61 290/ 12 1000.0 LAKE MURRAY 1400 60 300/ 8/ 13 1003.4S ACE BASIN NERRS 1300 61 300/ 5 1004.0S FORT PULASKI 1400 62 74 300/ 18/ 22 1005.1R SAPELO ISLAND 1300 62 290/ 14 1006.0S $$ ANZ835-935-AMZ111-154-330-350-352-354-370-450-454-472-051500- ...C-MAN AND BUOY OBSERVATIONS... STATION/POSITION TIME TEMP WIND PRES WAVE SWELL AIR SEA DIR/SP/G HT/PER HT/PER/DIR (UTC) (F) (DEG/KT/KT) (MB) (FT/S) (FT/S/D) BUOY 41004 1350 64 74 280/ 19/ 23 1001.5R 5/ 5 BUOY 41008 NOT AVBL FOLLY BEACH CMAN 1400 63 280/ 8/ 15 1002.7S CAPERS NEARSHORE 1408 62 70 290/ 16/ 21 1001.9R FRIPP NEARSHORE 1408 62 69 290/ 19/ 25 1003.3S STATION/POSITION TIME TEMP WIND PRES WAVE SWELL AIR SEA DIR/SP/G HT/PER HT/PER/DIR (UTC) (F) (DEG/KT/KT) (MB) (FT/S) (FT/S/D) 5E ST. MARYS GA 1321 71 N/A 3/ 3 FRYING PAN BUOY 1400 68 72 280/ 14/ 16 999.9R BUOY 41025 1350 60 71 10/ 19/ 23 998.6R 4/ 5 2/ 90/ 8 CAPE LOOKOUT NC 1400 62 30/ 15/ 18 999.1R BUOY 41002 1350 70 73 260/ 12/ 14 1000.1R 5/ 7 5/240/ 7 BUOY 41010 1320 74 78 300/ 19/ 23 1005.1R ST AUGUSTINE FL 1400 67 69 290/ 8/ 11 1008.8R $$

USA.gov is the U.S. government's official web portal to all federal, state and local government web resources and services.